[[{"header":{"parameterUnit":"m.s-1","parameterCategory":1,"la1":30.2991,"la2":30.254,"lo1":-89.0895,"lo2":-89.0444,"dy":0.0017,"dx":0.0017,"nx":28,"ny":28,"refTime":"2026-02-15T03:00:00:Z","depth":0,"parameterNumber":2,"parameterNumberName":"U-component_of_WINDS"},"data":[0,0,0,0,0,0,0,0,0,0,0,0,0,0,0,0,0,0,0,0,0,0,0,0,0,0,0,0,0,0,0,0,0,0,0,0,0,0,0,0,0,0,0,0,0,0,0,0,0,0,0,0,0,0,0,0,0,0,-0.6108,-0.6109,0,-0.6182,-0.6183,-0.6184,-0.6207,-0.6207,-0.6207,-0.6206,-0.6285,-0.6287,-0.629,0,0,0,0,0,0,0,0,0,0,0,0,0,-0.5988,-0.599,-0.6108,-0.6109,-0.611,-0.6182,-0.6183,-0.6184,-0.6208,-0.6207,-0.6207,-0.6206,-0.6284,-0.6287,-0.629,0,0,0,0,0,0,0,0,0,0,0,0,0,-0.6049,-0.5991,-0.6108,-0.613,-0.6133,-0.6182,-0.6183,-0.6184,-0.6208,-0.6207,-0.6207,-0.6206,-0.6283,-0.6287,-0.629,-0.6323,0,0,-0.6301,-0.6303,0,0,0,0,0,0,0,0,-0.6045,-0.6053,-0.6126,-0.6128,-0.6132,-0.6185,-0.617,-0.6231,-0.6208,-0.6179,-0.6206,-0.6206,-0.6252,-0.6258,-0.6274,-0.6327,-0.633,-0.6302,-0.6304,-0.6305,-0.6307,0,0,0,0,0,0,0,-0.6041,-0.605,-0.6137,-0.6127,-0.613,-0.6137,-0.6145,-0.6181,-0.6218,-0.6182,-0.6184,-0.6192,-0.6254,-0.627,-0.6276,-0.6332,-0.6302,-0.6305,-0.6307,-0.6308,-0.6416,-0.6417,0,0,0,0,0,0,-0.6033,-0.6047,-0.6135,-0.6139,-0.6086,-0.614,-0.6149,-0.6168,-0.6218,-0.6224,-0.6192,-0.6193,-0.6264,-0.6271,-0.6278,-0.6321,-0.6305,-0.6309,-0.6311,-0.6415,-0.6416,-0.6417,0,0,0,0,0,0,-0.603,-0.6041,-0.6132,-0.6094,-0.6106,-0.6142,-0.6164,-0.617,-0.6186,-0.6226,-0.6232,-0.6202,-0.6264,-0.6273,-0.6312,-0.6324,-0.631,-0.6314,-0.6415,-0.6416,-0.6417,-0.6405,0,0,0,0,0,0,-0.6027,-0.6039,-0.6052,-0.6094,-0.6108,-0.6163,-0.6165,-0.6172,-0.6192,-0.6194,-0.6237,-0.6243,-0.6264,-0.6306,-0.6315,-0.6328,-0.6317,-0.6414,-0.6415,-0.6416,-0.6404,-0.6405,-0.6406,0,0,0,0,0,-0.6022,-0.6046,-0.6052,-0.6063,-0.6124,-0.6164,-0.6172,-0.6195,-0.6193,-0.6206,-0.6231,-0.6242,-0.6321,-0.631,-0.6321,-0.6335,-0.6413,-0.6415,-0.6416,-0.6404,-0.6405,-0.6406,0,0,0,0,0,0,-0.6006,-0.6052,-0.6059,-0.6097,-0.6126,-0.6168,-0.6185,-0.6196,-0.6227,-0.6227,-0.6255,-0.6264,-0.6301,-0.6322,-0.6309,-0.6369,-0.6367,-0.6371,-0.6355,-0.6356,-0.6357,-0.6351,-0.632,0,0,0,0,0,-0.6006,-0.6034,-0.6073,-0.6103,-0.6117,-0.6149,-0.6167,-0.6182,-0.6214,-0.6227,-0.6255,-0.6285,-0.6317,-0.6338,-0.6369,-0.6407,-0.6417,-0.6422,-0.6423,-0.6424,-0.6427,-0.6449,-0.6452,-0.6422,-0.6422,-0.6422,0,0,-0.6008,-0.6037,-0.6053,-0.61,-0.6125,-0.6154,-0.6159,-0.619,-0.6212,-0.6232,-0.627,-0.6291,-0.6327,-0.6366,-0.6384,-0.6384,-0.6437,-0.6426,-0.6426,-0.6429,-0.6451,-0.6454,-0.6456,-0.6423,-0.6423,-0.6423,0,0,-0.6026,-0.605,-0.6078,-0.6102,-0.6139,-0.6159,-0.6166,-0.6206,-0.622,-0.6259,-0.6274,-0.6301,-0.6355,-0.6381,-0.6401,-0.6428,-0.6439,-0.6437,-0.6443,-0.6464,-0.6466,-0.6468,-0.6478,-0.6482,-0.644,-0.644,-0.644,0,-0.6024,-0.6068,-0.6091,-0.6121,-0.6141,-0.616,-0.6188,-0.6211,-0.6256,-0.627,-0.6269,-0.6337,-0.6363,-0.6408,-0.6415,-0.643,-0.6439,-0.6433,-0.6464,-0.6466,-0.6469,-0.6479,-0.6482,-0.644,-0.644,-0.644,-0.644,0,-0.6064,-0.6094,-0.6112,-0.6154,-0.6177,-0.6206,-0.6234,-0.6254,-0.6267,-0.6288,-0.6327,-0.6358,-0.6397,-0.6408,-0.6422,-0.6455,-0.6454,-0.6458,-0.6457,-0.6471,-0.6481,-0.6485,-0.6439,-0.6439,-0.644,-0.644,0,0,-0.6074,-0.6128,-0.6135,-0.6154,-0.6195,-0.622,-0.6249,-0.6286,-0.6303,-0.6333,-0.636,-0.6405,-0.6409,-0.6431,-0.6448,-0.6466,-0.6486,-0.6468,-0.647,-0.6471,-0.6525,-0.6522,-0.6527,-0.6493,-0.6494,-0.6495,-0.6523,0,-0.6098,-0.6151,-0.6173,-0.6217,-0.6245,-0.6263,-0.6289,-0.6317,-0.6337,-0.6365,-0.6388,-0.6419,-0.6422,-0.6436,-0.6455,-0.648,-0.6498,-0.6478,-0.6519,-0.652,-0.651,-0.6532,-0.6529,-0.6553,-0.6527,-0.6527,-0.6528,0,-0.6133,-0.6163,-0.6209,-0.6247,-0.626,-0.6283,-0.6318,-0.6344,-0.6377,-0.639,-0.6415,-0.643,-0.6463,-0.6459,-0.6505,-0.6491,-0.6509,-0.6523,-0.6525,-0.653,-0.6525,-0.6538,-0.6562,-0.6566,-0.6534,-0.6533,-0.6533,0,-0.6137,-0.6189,-0.6223,-0.6239,-0.6284,-0.63,-0.6319,-0.6352,-0.6372,-0.6403,-0.6417,-0.6451,-0.6471,-0.6497,-0.6522,-0.6516,-0.6565,-0.6563,-0.6578,-0.6577,-0.6588,-0.6587,-0.6615,-0.6598,-0.6598,-0.6598,-0.6598,0,-0.6162,-0.6189,-0.6225,-0.6246,-0.6278,-0.6302,-0.6333,-0.6354,-0.6383,-0.6409,-0.6426,-0.6451,-0.6481,-0.6509,-0.6529,-0.6564,-0.6572,-0.6585,-0.659,-0.6583,-0.6582,-0.6596,-0.6595,-0.6599,-0.6599,-0.6599,-0.6599,0,-0.6171,-0.6196,-0.6235,-0.6274,-0.6284,-0.6306,-0.634,-0.6361,-0.6382,-0.6415,-0.6424,-0.6457,-0.6491,-0.6518,-0.6563,-0.6576,-0.6613,-0.6618,-0.6601,-0.6604,-0.6618,-0.6616,-0.6656,-0.6663,-0.6641,-0.6641,-0.6641,0,-0.6186,-0.6207,-0.6248,-0.6266,-0.6286,-0.6315,-0.6336,-0.6361,-0.6382,-0.6421,-0.6438,-0.6473,-0.6503,-0.6557,-0.6585,-0.6619,-0.6626,-0.6638,-0.6631,-0.6624,-0.6627,-0.6625,-0.6628,-0.6639,-0.6639,-0.6639,-0.6639,0,-0.6209,-0.622,-0.6249,-0.6282,-0.6306,-0.6334,-0.6362,-0.6376,-0.6406,-0.6429,-0.6464,-0.6487,-0.6532,-0.6567,-0.6604,-0.6625,-0.6637,-0.664,-0.6646,-0.664,-0.663,-0.6636,-0.6604,-0.664,-0.664,-0.6639,-0.6639,-0.6639,-0.6222,-0.6242,-0.6273,-0.6305,-0.6329,-0.6354,-0.6377,-0.64,-0.6429,-0.6467,-0.648,-0.6516,-0.6549,-0.66,-0.6621,-0.665,-0.6651,-0.6658,-0.666,-0.6662,-0.6661,-0.6624,-0.6657,-0.6657,-0.6657,-0.6657,-0.6657,0,-0.6246,-0.6267,-0.6296,-0.6334,-0.6359,-0.6367,-0.6399,-0.642,-0.6451,-0.648,-0.6508,-0.6548,-0.6582,-0.6613,-0.6648,-0.6665,-0.6672,-0.6674,-0.6673,-0.6678,-0.6659,-0.6651,-0.6668,-0.6668,-0.6668,-0.6668,-0.6668,-0.6668,-0.6262,-0.6296,-0.6311,-0.6357,-0.6379,-0.6413,-0.643,-0.6455,-0.6478,-0.6521,-0.6549,-0.6569,-0.6599,-0.6636,-0.6668,-0.6676,-0.6689,-0.6689,-0.6699,-0.6681,-0.6679,-0.6678,-0.667,-0.6692,-0.6692,-0.6716,-0.6716,-0.6716]},{"header":{"parameterUnit":"m.s-1","parameterCategory":1,"la1":30.2991,"la2":30.254,"lo1":-89.0895,"lo2":-89.0444,"dy":0.0017,"dx":0.0017,"nx":28,"ny":28,"refTime":"2026-02-15T03:00:00:Z","depth":0,"parameterNumber":3,"parameterNumberName":"V-component_of_WINDS"},"data":[0,0,0,0,0,0,0,0,0,0,0,0,0,0,0,0,0,0,0,0,0,0,0,0,0,0,0,0,0,0,0,0,0,0,0,0,0,0,0,0,0,0,0,0,0,0,0,0,0,0,0,0,0,0,0,0,0,0,-4.2769,-4.277,0,-4.2846,-4.2847,-4.2848,-4.2825,-4.2823,-4.2822,-4.282,-4.2899,-4.2902,-4.2905,0,0,0,0,0,0,0,0,0,0,0,0,0,-4.2602,-4.2605,-4.2769,-4.277,-4.2771,-4.2846,-4.2847,-4.2848,-4.2825,-4.2823,-4.2821,-4.2819,-4.2897,-4.2902,-4.2906,0,0,0,0,0,0,0,0,0,0,0,0,0,-4.2676,-4.2606,-4.2769,-4.2769,-4.2769,-4.2845,-4.2847,-4.2848,-4.2826,-4.2823,-4.2821,-4.2819,-4.2896,-4.2901,-4.2906,-4.2987,0,0,-4.2923,-4.2925,0,0,0,0,0,0,0,0,-4.2672,-4.2682,-4.2768,-4.2769,-4.277,-4.2823,-4.2817,-4.2895,-4.2826,-4.2804,-4.282,-4.2817,-4.2875,-4.2882,-4.2902,-4.2991,-4.2994,-4.2923,-4.2926,-4.2929,-4.293,0,0,0,0,0,0,0,-4.2667,-4.2679,-4.2799,-4.2769,-4.277,-4.2765,-4.2772,-4.2831,-4.2852,-4.2806,-4.2804,-4.2814,-4.2875,-4.2897,-4.2904,-4.2995,-4.2923,-4.2928,-4.2931,-4.2933,-4.3155,-4.3158,0,0,0,0,0,0,-4.2661,-4.2675,-4.2797,-4.2802,-4.2714,-4.277,-4.2778,-4.2809,-4.2852,-4.2856,-4.2816,-4.2813,-4.2889,-4.2897,-4.2906,-4.3005,-4.2929,-4.2934,-4.2937,-4.3153,-4.3156,-4.3159,0,0,0,0,0,0,-4.2658,-4.2672,-4.2794,-4.2738,-4.2753,-4.2775,-4.2809,-4.2811,-4.2833,-4.2859,-4.2863,-4.2834,-4.2887,-4.2899,-4.2968,-4.3007,-4.2936,-4.2941,-4.315,-4.3154,-4.3157,-4.3202,0,0,0,0,0,0,-4.2653,-4.2671,-4.2702,-4.2739,-4.2756,-4.2854,-4.2811,-4.2815,-4.2842,-4.2838,-4.2877,-4.2881,-4.2886,-4.296,-4.2973,-4.3013,-4.2945,-4.3146,-4.3151,-4.3156,-4.3197,-4.3207,-4.3215,0,0,0,0,0,-4.2647,-4.2711,-4.2704,-4.2719,-4.2795,-4.2856,-4.2866,-4.2871,-4.2845,-4.2877,-4.2894,-4.288,-4.3,-4.2967,-4.2982,-4.3024,-4.3144,-4.315,-4.3156,-4.3193,-4.3205,-4.3215,0,0,0,0,0,0,-4.2678,-4.2716,-4.2708,-4.2786,-4.2818,-4.2852,-4.2892,-4.2884,-4.2923,-4.2918,-4.2923,-4.2932,-4.3002,-4.302,-4.2982,-4.3105,-4.3068,-4.3077,-4.3091,-4.3103,-4.3112,-4.3107,-4.295,0,0,0,0,0,-4.2694,-4.2741,-4.2771,-4.2837,-4.2853,-4.287,-4.2897,-4.2898,-4.2931,-4.2945,-4.2967,-4.2999,-4.3045,-4.3075,-4.3118,-4.3199,-4.3207,-4.3235,-4.3244,-4.3252,-4.326,-4.3305,-4.3319,-4.3179,-4.3179,-4.3179,0,0,-4.2728,-4.2754,-4.2783,-4.2844,-4.2869,-4.2917,-4.2882,-4.2934,-4.297,-4.2952,-4.3019,-4.3037,-4.3073,-4.3149,-4.3183,-4.3166,-4.3301,-4.326,-4.3265,-4.327,-4.3313,-4.3326,-4.3338,-4.3183,-4.3182,-4.3182,0,0,-4.2814,-4.2838,-4.2896,-4.2922,-4.296,-4.2971,-4.2985,-4.3021,-4.3032,-4.3099,-4.3087,-4.3129,-4.3207,-4.3234,-4.3258,-4.3355,-4.3344,-4.3369,-4.3417,-4.3461,-4.3472,-4.3482,-4.3518,-4.353,-4.3376,-4.3377,-4.3377,0,-4.2851,-4.2923,-4.2927,-4.2981,-4.3008,-4.2995,-4.3054,-4.3078,-4.3129,-4.3148,-4.3127,-4.3225,-4.3249,-4.3331,-4.3355,-4.3374,-4.3391,-4.3365,-4.347,-4.348,-4.3489,-4.3524,-4.3537,-4.3379,-4.3379,-4.3379,-4.3379,0,-4.2967,-4.3017,-4.306,-4.3109,-4.3141,-4.3197,-4.321,-4.3241,-4.324,-4.3253,-4.3321,-4.3349,-4.3398,-4.3418,-4.3416,-4.35,-4.3488,-4.3469,-4.3432,-4.3506,-4.3538,-4.3551,-4.3384,-4.3383,-4.3382,-4.3381,0,0,-4.3076,-4.3127,-4.3142,-4.3165,-4.3207,-4.3246,-4.3301,-4.3349,-4.3377,-4.3412,-4.3459,-4.3526,-4.3508,-4.3536,-4.3537,-4.3575,-4.3652,-4.3552,-4.3553,-4.357,-4.3747,-4.3763,-4.3778,-4.3644,-4.3647,-4.3649,-4.3745,0,-4.3166,-4.3264,-4.3269,-4.3359,-4.3406,-4.3394,-4.3442,-4.3473,-4.3486,-4.3528,-4.3543,-4.359,-4.3563,-4.358,-4.3617,-4.3635,-4.3688,-4.3627,-4.3689,-4.3691,-4.3682,-4.3794,-4.3811,-4.39,-4.3757,-4.3759,-4.3761,0,-4.3285,-4.3325,-4.3419,-4.3455,-4.3474,-4.3518,-4.3563,-4.3603,-4.3638,-4.3645,-4.3676,-4.3671,-4.3729,-4.3689,-4.3768,-4.3727,-4.3753,-4.3765,-4.3768,-4.3776,-4.3731,-4.3806,-4.3928,-4.3942,-4.378,-4.3779,-4.3777,0,-4.3357,-4.3433,-4.35,-4.3519,-4.3562,-4.3593,-4.3613,-4.3645,-4.3674,-4.3713,-4.3732,-4.3777,-4.3802,-4.3837,-4.3845,-4.3816,-4.3925,-4.3886,-4.3933,-4.3933,-4.3958,-4.3956,-4.4088,-4.3972,-4.3972,-4.3971,-4.3971,0,-4.3458,-4.3517,-4.3533,-4.3574,-4.3639,-4.3644,-4.3708,-4.3725,-4.3754,-4.3799,-4.379,-4.3832,-4.384,-4.3883,-4.389,-4.3955,-4.3966,-4.3974,-4.3975,-4.3976,-4.3975,-4.3993,-4.3988,-4.3975,-4.3974,-4.3973,-4.3973,0,-4.355,-4.3563,-4.3635,-4.3669,-4.3679,-4.3726,-4.3756,-4.3795,-4.3808,-4.3864,-4.3877,-4.3897,-4.3948,-4.3959,-4.4019,-4.4024,-4.4102,-4.4096,-4.409,-4.409,-4.4138,-4.4134,-4.4287,-4.4307,-4.4176,-4.4177,-4.4179,0,-4.3614,-4.3659,-4.3699,-4.3728,-4.3749,-4.3796,-4.3826,-4.3832,-4.3863,-4.3907,-4.3941,-4.3991,-4.4031,-4.4113,-4.4133,-4.4179,-4.4175,-4.4226,-4.4182,-4.4182,-4.4178,-4.4176,-4.4181,-4.4235,-4.4236,-4.4237,-4.4238,0,-4.3728,-4.3732,-4.3776,-4.3822,-4.3857,-4.3894,-4.3928,-4.3953,-4.3964,-4.3999,-4.4051,-4.4083,-4.4145,-4.4195,-4.4241,-4.4261,-4.4252,-4.4251,-4.4265,-4.4267,-4.4262,-4.4267,-4.4115,-4.4248,-4.4247,-4.4246,-4.4246,-4.4245,-4.3809,-4.3849,-4.3884,-4.3932,-4.3959,-4.3992,-4.4031,-4.4048,-4.4092,-4.4143,-4.4144,-4.4201,-4.4235,-4.4296,-4.4319,-4.4364,-4.4348,-4.4367,-4.4373,-4.4378,-4.4383,-4.4254,-4.4372,-4.4371,-4.4371,-4.4371,-4.4371,0,-4.3924,-4.3946,-4.399,-4.4039,-4.4078,-4.4066,-4.4103,-4.4136,-4.4187,-4.4219,-4.4259,-4.432,-4.4368,-4.4391,-4.4439,-4.4471,-4.4468,-4.4484,-4.4482,-4.4487,-4.4393,-4.4377,-4.4485,-4.4485,-4.4485,-4.4485,-4.4485,-4.4485,-4.3988,-4.4056,-4.4064,-4.4144,-4.4165,-4.4222,-4.4244,-4.4275,-4.4301,-4.4368,-4.4409,-4.4424,-4.4453,-4.4503,-4.4547,-4.4552,-4.4571,-4.4589,-4.4593,-4.4505,-4.4493,-4.4482,-4.4468,-4.4593,-4.4593,-4.4683,-4.4684,-4.4684]}]]